Date String (YYYY-MM-DD hh:mm:ss) UTC,Instrument flags,absolute air pressure of the measurement (hPa),sample flow rate (lpm),inlet stack bypass flow (lpm),air temperature of the measurement (°C),ambient temperature measured by the external sensor (°C),aerosol sample conditioner tube jacket temperature (°C),OPC LED temperature (°C),internal box temperature (°C),relative humidity of the measurement (%),span deviation,mass concentration of particles derived from Lorenz-Mie calculation of OPC scattering (μg/m³),mass concentration of particles derived from Lorenz-Mie calculation of OPC scattering (μg/m³),mass concentration of particles derived from Lorenz-Mie calculation of OPC scattering (μg/m³)
DateTimeUTC,F1_M11,P_M11,Q1_M11,Q2_M11,T1_M11,T2_M11,T3_M11,T4_M11,T5_M11,U1_M11,ZSPAN_M11,X0_M11,X2_M11,X1_M11
2024-03-19 11:00:00,SystemResetWarning,0830.2,5.01,000.00,018.5,017.8,000.0,027.0,020.2,15.2,0000.0,0006.84,0001.99,0000.79
2024-03-19 11:01:00,SystemResetWarning,0830.2,5.01,000.00,018.5,017.8,000.0,027.0,020.2,15.0,0000.0,0005.96,0002.01,0000.79
2024-03-19 11:02:00,SystemResetWarning,0830.2,5.00,000.00,018.4,017.8,000.0,027.0,020.2,15.1,0000.0,0005.49,0002.02,0000.79
2024-03-19 11:03:00,SystemResetWarning,0830.2,5.00,000.00,018.4,017.8,000.0,027.0,020.1,15.1,0000.0,0004.76,0002.01,0000.78
2024-03-19 11:04:00,SystemResetWarning,0830.2,5.00,000.00,018.4,017.8,000.0,027.0,020.1,14.8,0000.0,0004.82,0002.02,0000.79
2024-03-19 11:05:00,SystemResetWarning,0830.2,5.00,000.00,018.4,017.8,000.0,027.0,020.1,14.8,0000.0,0004.85,0002.01,0000.79
2024-03-19 11:06:00,SystemResetWarning,0830.1,5.00,000.00,018.4,017.7,000.0,027.0,020.1,14.9,0000.0,0004.96,0002.05,0000.81
2024-03-19 11:07:00,SystemResetWarning,0830.1,4.99,000.00,018.4,017.7,000.0,026.9,020.1,14.9,0000.0,0004.98,0002.08,0000.82
2024-03-19 11:08:00,SystemResetWarning,0830.1,4.99,000.00,018.4,017.7,000.0,026.9,020.1,15.2,0000.0,0005.35,0002.11,0000.84
2024-03-19 11:09:00,SystemResetWarning,0830.2,5.00,000.00,018.4,017.7,000.0,026.9,020.1,15.5,0000.0,0005.22,0002.04,0000.85
2024-03-19 11:10:00,SystemResetWarning,0830.2,4.99,000.00,018.4,017.7,000.0,026.9,020.1,15.8,0000.0,0005.02,0002.01,0000.86
2024-03-19 11:11:00,SystemResetWarning,0830.2,5.00,000.00,018.4,017.7,000.0,026.9,020.1,15.6,0000.0,0004.95,0002.02,0000.87
2024-03-19 11:12:00,SystemResetWarning,0830.2,5.00,000.00,018.4,017.7,000.0,026.9,020.1,15.7,0000.0,0005.00,0002.02,0000.86
2024-03-19 11:13:00,SystemResetWarning,0830.2,5.00,000.00,018.4,017.7,000.0,026.9,020.0,15.7,0000.0,0005.19,0002.08,0000.88
2024-03-19 11:14:00,SystemResetWarning,0830.2,5.00,000.00,018.3,017.7,000.0,026.9,020.0,15.7,0000.0,0005.40,0002.16,0000.88
2024-03-19 11:15:00,SystemResetWarning,0830.1,5.00,000.00,018.3,017.7,000.0,026.9,020.0,15.5,0000.0,0005.21,0002.13,0000.88
2024-03-19 11:16:00,SystemResetWarning,0830.2,5.01,000.00,018.3,017.6,000.0,026.9,020.0,15.4,0000.0,0005.43,0002.14,0000.88
2024-03-19 11:17:00,SystemResetWarning,0830.1,5.01,000.00,018.3,017.6,000.0,026.9,020.0,15.2,0000.0,0005.70,0002.16,0000.88
2024-03-19 11:18:00,SystemResetWarning,0830.1,5.00,000.00,018.3,017.6,000.0,026.9,020.0,15.1,0000.0,0005.41,0002.06,0000.87
2024-03-19 11:19:00,SystemResetWarning,0830.1,4.99,000.00,018.3,017.6,000.0,026.9,020.0,15.1,0000.0,0005.03,0002.00,0000.86
2024-03-19 11:20:00,SystemResetWarning,0830.1,5.00,000.00,018.3,017.6,000.0,026.9,020.0,14.9,0000.0,0004.92,0002.02,0000.86
2024-03-19 11:21:00,SystemResetWarning,0830.1,5.00,000.00,018.3,017.6,000.0,026.9,020.0,14.9,0000.0,0005.12,0002.08,0000.86
2024-03-19 11:22:00,SystemResetWarning,0830.1,5.00,000.00,018.3,017.6,000.0,026.9,020.0,14.9,0000.0,0005.01,0002.04,0000.86
2024-03-19 11:23:00,SystemResetWarning,0830.1,5.00,000.00,018.3,017.6,000.0,026.9,020.0,14.9,0000.0,0004.98,0002.02,0000.87
2024-03-19 11:24:00,SystemResetWarning,0830.1,5.00,000.00,018.3,017.6,000.0,026.9,020.0,14.8,0000.0,0005.04,0002.01,0000.86
2024-03-19 11:25:00,SystemResetWarning,0830.1,5.00,000.00,018.3,017.6,000.0,026.9,020.0,14.7,0000.0,0005.34,0002.02,0000.86
2024-03-19 11:26:00,SystemResetWarning,0830.1,5.00,000.00,018.3,017.6,000.0,026.9,020.0,14.7,0000.0,0005.96,0002.09,0000.86
2024-03-19 11:27:00,SystemResetWarning,0830.1,5.00,000.00,018.3,017.6,000.0,026.9,020.0,14.8,0000.0,0005.81,0002.11,0000.87
2024-03-19 11:28:00,SystemResetWarning,0830.1,5.01,000.00,018.3,017.6,000.0,026.9,020.0,14.8,0000.0,0005.23,0002.02,0000.85
2024-03-19 11:29:00,SystemResetWarning,0830.1,5.00,000.00,018.3,017.6,000.0,026.9,020.0,14.8,0000.0,0005.29,0002.08,0000.86
2024-03-19 11:30:00,SystemResetWarning,0830.1,5.00,000.00,018.3,017.6,000.0,026.9,020.0,14.8,0000.0,0005.35,0002.11,0000.86
2024-03-19 11:31:00,SystemResetWarning,0830.1,5.00,000.00,018.3,017.5,000.0,026.9,020.0,14.8,0000.0,0005.33,0002.12,0000.86
2024-03-19 11:32:00,SystemResetWarning,0830.1,5.00,000.00,018.3,017.5,000.0,026.9,020.0,14.7,0000.0,0005.21,0002.09,0000.87
2024-03-19 11:33:00,SystemResetWarning,0830.1,5.00,000.00,018.3,017.5,000.0,026.9,020.0,14.6,0000.0,0005.31,0002.14,0000.86
2024-03-19 11:34:00,SystemResetWarning,0830.1,5.00,000.00,018.3,017.5,000.0,026.9,020.0,14.7,0000.0,0005.36,0002.15,0000.85
2024-03-19 11:35:00,SystemResetWarning,0830.1,5.00,000.00,018.3,017.5,000.0,026.9,020.0,14.7,0000.0,0006.30,0002.12,0000.85
2024-03-19 11:36:00,SystemResetWarning,0830.1,5.00,000.00,018.3,017.5,000.0,026.9,020.0,14.7,0000.0,0006.32,0002.11,0000.84
2024-03-19 11:37:00,SystemResetWarning,0830.1,5.00,000.00,018.3,017.5,000.0,026.9,020.0,14.7,0000.0,0005.95,0002.19,0000.85
2024-03-19 11:38:00,SystemResetWarning,0830.2,5.00,000.00,018.3,017.5,000.0,026.9,020.0,14.7,0000.0,0005.89,0002.16,0000.85
2024-03-19 11:39:00,SystemResetWarning,0830.1,4.99,000.00,018.3,017.5,000.0,026.9,020.0,14.7,0000.0,0006.36,0002.28,0000.84
2024-03-19 11:40:00,SystemResetWarning,0830.2,5.01,000.00,018.3,017.5,000.0,026.9,020.0,14.7,0000.0,0006.57,0002.33,0000.85
2024-03-19 11:41:00,SystemResetWarning,0830.1,5.01,000.00,018.3,017.5,000.0,026.9,020.0,14.7,0000.0,0006.62,0002.33,0000.86
2024-03-19 11:42:00,SystemResetWarning,0830.1,5.01,000.00,018.3,017.5,000.0,026.9,020.0,14.7,0000.0,0006.63,0002.31,0000.86
2024-03-19 11:43:00,SystemResetWarning,0830.2,4.99,000.00,018.3,017.5,000.0,026.9,020.0,14.6,0000.0,0006.68,0002.36,0000.87
2024-03-19 11:44:00,SystemResetWarning,0830.1,4.99,000.00,018.3,017.5,000.0,026.9,020.0,14.7,0000.0,0006.46,0002.29,0000.88
2024-03-19 11:45:00,SystemResetWarning,0830.1,5.01,000.00,018.3,017.5,000.0,026.9,020.0,14.6,0000.0,0006.27,0002.23,0000.88
2024-03-19 11:46:00,SystemResetWarning,0830.1,5.02,000.00,018.3,017.5,000.0,026.9,020.0,14.6,0000.0,0005.00,0002.16,0000.88
2024-03-19 11:47:00,SystemResetWarning,0830.1,4.99,000.00,018.3,017.5,000.0,026.9,020.0,14.5,0000.0,0004.75,0002.14,0000.90
2024-03-19 11:48:00,SystemResetWarning,0830.1,4.99,000.00,018.3,017.5,000.0,026.9,020.0,14.5,0000.0,0004.70,0002.09,0000.90
2024-03-19 11:49:00,SystemResetWarning,0830.1,5.01,000.00,018.3,017.5,000.0,026.9,020.0,14.5,0000.0,0004.75,0002.11,0000.90
2024-03-19 11:50:00,SystemResetWarning,0830.1,5.01,000.00,018.3,017.5,000.0,026.9,020.0,14.5,0000.0,0004.42,0002.01,0000.90
2024-03-19 11:51:00,SystemResetWarning,0830.1,5.01,000.00,018.3,017.4,000.0,026.9,020.0,14.5,0000.0,0004.38,0001.95,0000.89
2024-03-19 11:52:00,SystemResetWarning,0830.1,5.00,000.00,018.3,017.4,000.0,026.9,020.0,14.5,0000.0,0004.92,0002.06,0000.90
2024-03-19 11:53:00,SystemResetWarning,0830.1,4.99,000.00,018.3,017.4,000.0,026.9,020.0,14.6,0000.0,0005.23,0002.15,0000.89
2024-03-19 11:54:00,SystemResetWarning,0830.2,4.99,000.00,018.3,017.4,000.0,026.9,020.0,14.6,0000.0,0005.57,0002.14,0000.89
2024-03-19 11:55:00,SystemResetWarning,0830.1,5.01,000.00,018.3,017.4,000.0,026.9,020.0,14.7,0000.0,0005.81,0002.23,0000.90
2024-03-19 11:56:00,SystemResetWarning,0830.1,5.00,000.00,018.3,017.4,000.0,026.9,020.0,14.8,0000.0,0006.02,0002.31,0000.90
2024-03-19 11:57:00,SystemResetWarning,0830.1,5.00,000.00,018.3,017.4,000.0,026.9,020.0,14.9,0000.0,0006.23,0002.36,0000.92
2024-03-19 11:58:00,SystemResetWarning,0830.1,4.99,000.00,018.3,017.4,000.0,026.9,020.0,15.0,0000.0,0006.56,0002.46,0000.92
2024-03-19 11:59:00,SystemResetWarning,0830.1,4.99,000.00,018.3,017.4,000.0,026.9,020.0,15.0,0000.0,0006.54,0002.44,0000.91
